Tracking 31032 objects as of 13-Jul-2025
HD Live streaming from Space Station
objects crossing your sky now

CZ-6A DEB

Track CZ-6A DEB now!
10-day predictions


NORAD ID: 54315
Int'l Code: 2022-151BJ
Perigee: 833.2 km
Apogee: 895.3 km
Inclination: 98.8 °
Period: 102.1 minutes
Semi major axis: 7235 km
RCS: Unknown
Launch date: November 11, 2022
Source: People's Republic of China (PRC)
Launch site: Taiyaun Space Center, China (TSC)

Note: This is SATELLITE DEBRIS
Your satellite tracking list
Your tracking list is empty




NASA's NSSDC Master Catalog

Two Line Element Set (TLE):
1 54315U 22151BJ  25193.82748209  .00000101  00000-0  80341-4 0  9991
2 54315  98.8400 197.5833 0042914 222.4244 137.3607 14.10648477136666
Source of the keplerian elements: AFSPC